Weather Roundup
Issued by NWS Chicago, IL

Home | Current Version | Previous Version | Text Only | Print | Product List | Glossary On
Versions: 1 2 3 4 5 6 7 8 9 10 11 12 13 14 15 16 17 18 19 20 21 22 23 24 25 26 27 28 29 30 31 32 33 34 35 36 37 38 39 40 41 42 43 44 45 46 47 48 49 50
000
NZUS59 KLOT 261421
HRRLOT

CHICAGO AREA WEATHER ROUNDUP
NATIONAL WEATHER SERVICE CHICAGO/ROMEOVILLE IL
900 AM CDT TUE MAY 26 2015

NOTE: "FAIR" INDICATES FEW OR NO CLOUDS BELOW 12,000 FEET WITH NO
SIGNIFICANT WEATHER AND/OR OBSTRUCTIONS TO VISIBILITY.

* THESE STATIONS ARE NOT UNDER NWS QUALITY CONTROL. THEY ALSO MAY NOT
  REPORT WEATHER SUCH AS PRECIPITATION OR FOG.

ILZ005-006-012>014-019>023-261500-
NORTHEAST ILLINOIS

CITY           SKY/WX    TMP DP  RH WIND       PRES   REMARKS
OHARE          CLOUDY    69  64  84 S9        29.91F
MIDWAY         CLOUDY    73  66  78 S10G17    29.92F
AURORA         CLOUDY    70  64  81 SE13      29.90F HAZE
LANSING*       CLOUDY    71  64  78 S13       29.94F
JOLIET*        CLOUDY    72  67  86 SE5       29.91F
WAUKEGAN       CLOUDY    65  61  87 SE6       29.91F
DUPAGE AIRPORT CLOUDY    69  64  84 SE13      29.90F
WHEELING       CLOUDY    70  64  81 S12       29.93F
KANKAKEE*      CLOUDY    71  66  85 SE13      29.93F
MORRIS*        CLOUDY    71  66  84 SE14G22   29.88F
LEWIS AIRPORT* CLOUDY    70  65  85 SE10      29.91F
NORTHERLY IS     N/A     70  63  78 S12         N/A
$$

WIZ051-052-058>065-066-070>072-261500-
SOUTHEAST WISCONSIN

CITY           SKY/WX    TMP DP  RH WIND       PRES   REMARKS
MILWAUKEE      CLOUDY    71  64  78 S16G23    29.91S
KENOSHA*       CLOUDY    70  64  81 S9        29.91F
RACINE*        CLOUDY    63  59  87 S9        29.94S
BURLINGTON     CLOUDY    66  64  91 S7        29.91S FOG
WAUKESHA       CLOUDY    68  64  88 S14       29.91F
WEST BEND      CLOUDY    70  64  83 S6        29.89S
$$

INZ001>003-010>013-019-020-261500-
NORTHWEST INDIANA

CITY           SKY/WX    TMP DP  RH WIND       PRES   REMARKS
GARY*          CLOUDY    72  66  83 S14       29.95F
MICHIGAN CITY* NOT AVBL
RENSSELAER*    NOT AVBL
VALPARAISO     CLOUDY    71  64  78 S14G22    29.97F
$$

LMZ740>746-261500-
SOUTHERN LAKE MICHIGAN

STATION/POSITION TIME  SKY/WX   TEMP WIND        PRES    VSBY
                                AIR  DIR/SP/G
                 (UTC)          (F)  (DEG/KT/KT) (MB)    (MI)
HARRISON CRIB    1400            64  130/ 16/ 17   N/A
BURNHAM HARBOR   1400            69  160/  8/ 12   N/A
CALUMET HARBOR   1300            70  150/  7/ 12   N/A
BURNS HARBOR     1300            70  180/ 10/ 18 1015.2S
MICHIGAN CITY    1400            70  140/ 13/ 17   N/A
$$

ABBREVIATIONS USED IN REMARKS
   TC - TEMPERATURE IN CELSIUS
  WCI - WIND CHILL INDEX
   HX - HEAT INDEX
  VSB - VISIBILITY
$$


USA.gov is the U.S. government's official web portal to all federal, state and local government web resources and services.